Location: Fort Worth, Tx
(32.7431°N, 97.3695°W)
Time: 17:23:16
(UTC-04:00)

KAITUO 1B - Visible Passes

Search period start: 30 March 2023 00:00
Search period end: 09 April 2023 00:00
Orbit: 446 x 459 km, 97.4° (Epoch: 30 March)

Date Brightness Start Highest point End Pass type
(mag) Time Alt. Az. Time Alt. Az. Time Alt. Az.
31 Mar ? 21:40:01 10° WSW 21:41:23 12° W 21:42:45 10° WNW visible
03 Apr ? 21:28:51 10° SW 21:31:07 17° W 21:33:24 10° NW visible
06 Apr ? 21:17:21 10° SSW 21:20:08 24° W 21:22:57 10° NW visible
08 Apr ? 21:42:15 10° WSW 21:43:28 12° W 21:44:41 10° WNW visible
